sat.trackr.live / text

‹ back to catalog

FLOCK 4G-9

NORAD 62622 · 2025-009P

PAYLOAD ACTIVE UNKNOWN

§ Identity

Operator
Country
US
Launch date
2025-01-14
Launch site
AFWTR
Launch vehicle
Mass (kg)
RCS (m²)

Purposes: earth_obs

External: N2YO · Heavens-Above · Gunter

§ Orbital elements

Epoch: 2026-09-19T11:02:50.132544Z

Period
94.15 min
Inclination
97.3900°
Eccentricity
0.0004288
Mean motion
15.29478316 rev/d
Perigee alt
474.4 km
Apogee alt
480.3 km
Semi-major
6,855.5 km
B*
2.1214e-4
RAAN
342.7793°
Arg perigee
10.1984°
Mean anomaly
349.9343°
Rev number
9,326

§ Raw data

FLOCK 4G-91 62622U 25009P   26262.46030246  .00005988  00000+0  21214-3 0  99992 62622  97.3900 342.7793 0004288  10.1984 349.9343 15.29478316 93269

JSON: /api/v1/satellites/62622 · /tle

For live sub-satellite position, see the globe view (requires WebGL).

§ Visibility from observer

Set your observer location to see the next 7 days of passes ≥ 10°. The values pass through the URL so the page stays shareable.

No JS? Fill the form by hand. The geolocation button needs JavaScript.